RH
34 42 48 50 58 62 55 47 40 38 43 44 37 26 21 24 26 25 24 27 29 30 30 29 28 26 29 28 39 82 104 98 102 102 100 102 100 101 101 99 98 93 83 70 56 42 31 29 30 31 34 34 29 55 95 102 98 101 99 99 100 101 100 99 100 100 100 100 97 98 100 101 101 99 100 101 101 100 99 99 100 103 105 101 95
57 64 69 61 60 63 55 49 48 42 34 27 21 20 26 29 26 27 30 34 39 41 40 35 29 29 34 32 40 78 103 100 99 101 100 100 101 102 100 98 94 82 67 54 42 35 31 30 34 36 36 34 36 66 97 100 99 101 98 101 101 100 100 100 100 100 101 101 99 99 100 102 101 100 100 100 101 100 100 99 98 102 100 89 89
96 93 94 80 66 72 74 64 48 29 19 20 28 31 34 43 43 35 30 31 36 37 37 40 35 32 40 39 33 53 85 101 103 100 100 101 100 98 101 99 85 67 51 43 37 33 34 34 39 41 38 35 40 72 101 99 99 102 99 100 101 100 100 100 100 100 101 102 101 100 100 101 101 101 101 101 100 101 102 100 99 101 95 80 72
91 93 100 92 75 76 70 49 29 21 29 43 61 73 75 83 77 52 36 31 34 36 38 44 44 50 66 59 40 39 51 70 90 101 99 96 96 98 101 88 67 54 42 37 34 34 36 37 40 41 41 43 44 68 99 100 99 102 100 100 100 100 100 100 101 99 99 101 100 100 100 100 101 100 101 102 98 98 102 101 102 100 96 94 81
82 97 101 94 79 67 46 31 32 44 68 87 97 102 98 101 98 82 71 58 51 49 48 51 46 64 97 86 63 64 62 62 80 98 95 92 98 97 86 66 49 45 39 33 33 34 38 39 40 38 38 47 50 64 90 100 100 100 100 101 100 99 101 101 101 100 99 99 100 100 101 101 101 101 102 103 95 93 99 99 102 102 97 98 88
64 87 100 101 80 54 37 45 72 89 99 101 95 95 95 98 100 99 99 92 83 65 52 57 53 70 104 95 78 86 91 90 92 98 97 97 101 92 76 61 47 42 38 34 32 33 39 43 42 39 37 45 57 69 82 93 99 101 99 99 99 98 100 100 100 101 102 100 100 101 101 101 101 100 101 101 96 96 101 100 101 105 102 92 80
66 90 103 95 68 55 59 76 99 106 99 92 90 94 95 95 98 100 100 99 100 84 64 70 76 89 106 94 87 95 97 100 100 99 100 101 102 95 85 70 49 40 37 35 34 34 41 46 44 42 39 40 55 72 83 89 94 99 101 101 100 99 99 101 100 101 103 101 100 100 101 101 101 100 100 101 103 103 101 99 100 102 103 99 91
92 101 96 75 64 78 90 92 96 97 95 93 93 96 96 97 99 101 98 96 101 98 88 90 95 102 105 95 94 100 99 99 100 100 101 102 103 98 90 69 45 40 41 40 41 40 43 47 44 43 42 40 46 61 78 90 94 95 96 99 101 102 102 103 102 101 103 102 100 100 100 99 97 95 90 87 91 100 102 98 99 102 99 100 101
102 98 84 65 70 89 97 93 96 99 98 98 97 98 101 102 102 102 101 99 100 101 98 100 101 101 101 100 99 99 100 100 100 101 100 100 102 100 89 65 46 48 52 52 51 48 45 44 42 43 45 43 43 48 61 79 93 95 93 93 95 97 99 102 104 105 105 103 101 101 101 97 93 85 76 71 72 86 102 100 98 102 100 100 102
96 90 69 65 78 91 97 96 97 100 101 103 103 102 102 102 103 103 102 102 101 100 100 98 102 103 98 96 99 99 99 100 100 100 99 100 101 99 89 67 53 55 57 55 52 48 44 40 39 42 45 48 48 48 51 61 77 89 93 93 92 92 94 96 99 101 102 101 99 99 96 87 81 74 71 80 82 82 96 103 101 101 101 102 101
75 70 60 79 97 97 101 102 98 97 98 101 102 101 102 102 101 100 98 100 100 100 101 99 102 105 97 93 98 100 99 99 100 100 99 101 98 89 78 65 57 55 54 52 48 44 41 40 40 41 43 48 51 52 53 54 61 71 78 82 84 87 92 92 91 92 94 94 90 86 78 68 65 65 67 84 95 89 90 98 102 102 102 102 100
67 63 75 95 100 97 102 105 100 94 93 97 100 100 102 101 101 101 99 100 101 99 99 100 102 103 98 97 101 98 97 98 99 99 99 100 94 78 64 59 56 54 52 50 46 45 44 45 45 44 44 46 50 53 54 55 55 58 61 63 64 67 71 73 73 74 75 74 69 63 58 54 55 58 67 87 101 98 95 97 100 101 102 104 100
72 69 96 104 99 101 102 102 103 98 92 96 99 97 100 102 102 102 101 100 100 100 99 99 103 104 99 101 104 97 94 98 98 97 99 100 95 77 60 57 57 55 55 51 49 49 50 52 52 51 50 49 51 53 54 56 56 56 56 56 56 55 55 55 55 55 55 54 53 52 51 52 55 58 71 95 105 101 101 102 102 100 100 105 103
49 64 98 104 100 104 100 100 106 97 88 91 96 98 100 101 102 103 103 102 100 99 100 100 100 102 101 102 103 98 95 100 99 97 99 100 98 79 55 49 52 53 55 53 50 51 52 55 54 52 52 52 52 52 51 53 53 52 51 51 51 51 51 51 51 51 52 52 53 55 57 58 60 60 70 93 105 104 105 106 103 99 97 103 104
20 49 94 105 101 104 102 101 102 94 90 94 97 99 100 100 103 102 96 98 103 100 98 101 100 99 101 101 101 100 99 101 100 100 100 100 100 84 60 53 49 44 48 50 47 48 49 50 51 50 48 47 46 47 47 47 46 45 44 43 43 42 42 42 43 44 47 51 55 58 61 63 65 62 64 81 95 99 105 108 106 102 99 99 97
24 45 90 108 101 100 102 99 101 100 97 99 101 102 102 100 101 102 94 88 95 101 100 99 99 99 99 100 100 100 101 101 100 101 100 100 101 92 81 80 67 44 39 42 42 43 44 45 48 49 48 47 44 42 43 44 44 45 44 43 42 41 40 39 39 40 41 45 52 57 61 63 66 67 66 71 77 81 90 100 106 105 101 96 86
39 42 69 99 102 99 101 98 99 102 100 101 104 102 101 99 97 101 101 88 82 94 103 100 98 100 100 100 101 100 100 101 100 102 101 100 101 98 92 94 91 71 50 40 39 41 41 42 43 46 47 47 45 42 40 41 41 42 42 42 41 40 40 39 39 40 39 40 44 47 51 54 58 63 65 68 72 74 77 86 97 102 102 100 93
48 38 46 84 106 101 97 96 97 101 104 104 101 97 99 101 97 97 104 101 89 86 96 103 100 100 100 100 101 100 100 100 99 100 102 100 100 101 98 96 99 94 72 52 46 44 43 45 44 45 46 47 46 43 40 40 39 38 38 38 40 41 41 41 40 40 39 38 38 38 39 41 43 46 51 58 64 69 73 77 83 89 94 99 100
72 59 47 69 99 103 95 95 98 101 103 104 100 96 98 102 100 98 100 105 98 78 74 87 92 95 99 97 98 101 100 101 99 99 101 102 99 99 101 99 95 90 74 60 57 54 46 46 48 48 47 48 50 48 47 45 42 42 42 41 41 42 44 45 45 44 44 42 41 39 38 37 38 38 39 43 48 55 62 68 73 78 82 86 88
95 87 74 73 86 97 99 98 101 103 102 105 101 92 96 101 101 100 99 104 103 76 55 59 68 80 85 79 85 99 101 100 99 99 100 102 102 99 99 99 95 84 65 50 56 59 49 45 52 54 52 53 55 54 55 54 51 50 50 49 48 47 46 46 46 46 46 46 46 45 44 42 41 41 41 41 43 44 48 53 59 64 68 73 77
99 94 96 95 92 96 101 100 101 100 98 101 101 93 96 103 101 100 98 102 105 83 58 55 55 60 67 66 71 88 100 102 100 99 101 101 101 101 98 98 99 89 64 44 45 52 50 48 53 61 65 68 69 66 63 61 59 57 57 55 56 56 52 48 46 44 44 46 47 47 47 47 46 46 45 45 45 45 45 46 47 50 53 57 62
96 94 99 102 100 101 105 104 102 102 99 98 99 97 99 104 103 101 97 95 95 82 69 73 67 54 56 62 62 68 86 103 104 98 100 101 101 103 101 98 98 89 69 50 45 50 54 54 57 68 75 79 83 78 68 64 63 61 62 62 63 64 62 58 53 50 50 51 50 50 49 49 49 49 49 48 47 46 45 46 47 48 48 49 51
97 97 99 98 98 102 105 100 93 96 101 100 100 101 101 102 101 101 99 92 82 68 62 74 75 59 53 57 57 56 65 88 103 102 99 100 100 102 104 102 99 92 78 63 57 60 65 66 69 78 82 85 91 80 62 59 61 61 65 70 69 66 64 65 64 63 62 61 57 56 55 55 54 54 54 54 53 51 48 47 47 47 47 48 49
98 97 102 101 98 102 102 89 75 79 89 92 99 103 99 94 91 95 102 101 90 75 66 69 72 65 58 54 53 53 54 66 89 101 101 99 101 103 106 106 102 96 85 74 70 77 85 85 82 84 89 95 93 73 56 57 62 64 69 71 66 59 58 63 68 69 69 67 64 63 63 63 62 60 59 58 57 58 57 54 52 51 51 51 51
85 87 94 94 91 95 98 83 66 68 72 71 74 80 78 73 70 72 81 91 98 97 91 89 89 88 83 72 60 56 56 59 74 94 103 101 100 102 103 104 101 94 86 80 79 88 97 100 97 96 96 95 84 65 57 61 67 68 68 66 60 53 53 59 66 69 70 69 69 69 70 69 67 66 64 62 62 64 65 64 63 64 63 59 57
66 66 68 68 68 75 83 76 62 59 61 58 55 55 57 58 56 54 58 65 76 90 102 104 99 95 93 89 78 67 62 61 64 79 97 103 102 101 102 102 99 93 88 86 84 82 81 85 89 89 87 82 71 61 58 62 69 69 65 62 60 57 59 65 71 77 78 78 79 79 78 75 72 72 74 73 73 74 75 73 71 71 71 66 63
56 54 50 47 46 48 52 52 46 39 39 42 43 43 47 49 46 46 51 55 59 74 96 107 103 94 84 78 76 72 71 72 67 68 84 100 104 102 101 101 99 95 93 91 86 76 69 72 77 77 74 68 59 56 59 63 66 64 60 60 64 68 75 81 85 90 90 90 89 86 82 79 78 82 86 86 82 77 74 71 67 66 67 63 60
48 46 43 38 34 32 33 34 33 31 31 33 36 41 48 51 47 47 56 61 61 67 82 92 99 101 92 78 68 63 64 71 74 74 82 95 102 103 104 104 103 101 99 95 87 77 75 79 76 71 66 58 53 62 72 74 70 67 66 69 75 83 89 93 97 98 97 93 89 84 81 80 82 86 87 85 79 71 67 66 63 61 62 61 60
49 47 43 39 35 34 35 37 38 38 37 38 39 44 53 58 55 59 69 67 60 63 73 79 85 93 98 96 87 79 79 82 85 88 89 88 90 94 98 101 102 100 95 91 85 81 82 80 72 65 60 58 65 77 82 83 82 81 81 85 90 94 93 93 93 93 91 87 80 76 75 76 79 84 84 81 78 72 69 69 67 64 65 69 72
56 55 52 50 49 46 45 46 48 47 45 45 45 48 55 58 56 65 80 80 69 69 78 85 87 87 93 101 101 99 101 99 96 95 91 84 80 78 78 84 90 88 83 82 83 82 83 82 77 71 69 73 80 84 87 93 96 94 94 97 99 98 97 95 92 89 84 78 73 72 74 74 79 87 87 82 78 74 71 73 79 82 83 83 85
57 58 58 59 59 58 57 57 58 60 61 60 60 59 59 60 59 63 77 86 85 86 90 94 94 93 96 102 103 102 103 103 101 99 97 94 88 79 73 78 87 88 88 91 92 90 91 95 94 87 84 90 93 92 96 100 96 94 97 100 98 98 100 101 99 96 91 86 86 88 89 88 93 99 94 82 73 70 73 81 90 98 97 89 88
64 63 60 59 58 59 62 65 67 70 73 74 74 75 74 73 74 74 77 83 85 87 90 92 90 90 93 95 95 96 97 99 100 99 99 98 94 87 81 81 85 89 94 98 98 96 94 97 100 98 95 97 98 102 104 98 94 97 98 98 97 93 94 101 102 101 99 98 99 101 99 98 99 102 102 94 83 77 83 90 95 101 101 91 89
78 77 75 74 74 75 77 79 81 82 83 83 82 83 85 85 86 86 86 86 86 85 86 87 85 84 86 87 87 87 89 91 91 90 93 94 95 95 94 90 87 88 90 88 86 87 88 90 97 101 100 98 99 108 110 99 97 102 99 99 101 93 90 98 100 100 100 100 100 101 100 99 98 98 100 101 97 92 89 89 89 96 103 99 96
85 86 89 93 96 97 96 94 94 93 91 91 89 86 86 87 86 86 85 83 83 83 83 82 82 83 84 86 88 89 90 92 90 87 88 89 90 94 97 95 93 94 96 92 86 87 90 94 98 99 98 96 97 106 111 103 98 100 99 100 103 98 96 99 100 100 100 99 100 102 99 98 99 100 99 98 101 101 97 93 88 90 95 95 93
82 84 91 100 105 107 106 102 101 101 100 99 96 91 87 85 84 83 82 80 79 80 81 81 82 83 83 85 88 90 91 92 90 88 88 87 88 90 91 89 88 92 100 104 102 101 100 99 99 98 94 92 89 92 101 104 100 101 102 100 99 99 99 99 100 100 98 96 100 103 102 98 97 100 100 98 100 101 101 101 99 96 93 87 79
90 93 98 103 108 109 106 101 100 99 97 93 89 86 85 85 84 82 79 76 74 75 78 78 77 78 79 79 81 83 84 83 82 81 81 82 84 87 88 88 88 91 96 102 106 109 109 106 106 105 101 98 94 89 92 98 100 103 105 102 100 101 101 100 101 101 101 101 101 101 103 102 99 99 101 100 99 99 96 97 99 101 100 93 80
100 102 104 103 106 108 104 101 101 99 93 84 75 70 68 71 75 78 78 76 73 71 71 70 70 72 73 73 74 75 74 72 73 73 72 72 73 76 79 82 85 89 92 96 100 104 106 108 110 109 103 101 101 99 99 102 102 102 104 104 103 104 105 105 104 103 105 105 102 100 102 103 102 100 99 99 99 99 96 95 96 97 96 93 86
106 106 105 102 102 105 105 103 103 102 99 94 85 76 68 65 64 67 69 69 67 64 60 59 60 60 60 61 61 61 60 61 64 65 64 63 64 66 68 70 72 76 79 83 85 88 90 93 96 97 94 91 93 97 102 105 106 107 108 108 107 104 104 105 104 103 102 102 102 101 102 104 105 101 99 101 102 101 100 101 101 99 96 94 93
108 107 106 104 104 103 102 102 102 102 101 101 100 97 92 86 80 76 75 71 65 60 58 56 53 50 48 47 46 45 45 46 48 50 51 52 52 52 53 55 57 59 61 63 67 69 71 72 72 73 72 70 70 74 78 81 86 91 95 97 98 97 98 100 99 98 99 103 106 106 104 103 100 94 94 98 98 97 99 101 102 101 99 98 99
86 88 90 94 100 104 105 103 103 103 101 100 102 102 100 96 91 88 87 84 76 68 64 59 53 47 43 40 37 35 33 33 34 36 39 40 41 42 44 46 47 49 51 53 55 55 56 56 56 56 55 54 55 59 62 63 65 69 74 77 80 83 86 87 84 83 88 94 99 102 104 100 92 87 90 95 94 91 91 93 96 98 100 101 102
64 66 68 71 78 89 97 100 101 102 103 103 103 102 99 97 93 91 92 93 89 84 79 72 67 62 58 54 50 46 40 35 33 32 33 35 37 39 41 43 45 46 47 49 49 49 49 50 51 52 53 52 53 55 57 59 61 63 64 66 69 71 70 69 67 70 75 78 78 79 81 82 80 81 87 92 93 92 89 88 90 94 97 101 103
65 64 64 65 66 71 78 83 88 93 96 98 100 100 98 95 93 91 90 89 91 93 93 90 87 85 81 76 70 65 58 50 44 43 43 43 45 47 49 51 52 53 53 54 54 55 55 55 57 58 58 58 60 61 60 58 59 60 60 60 62 64 63 62 61 60 61 63 63 63 64 69 76 82 83 83 83 85 85 83 82 82 83 85 89
82 78 75 73 72 72 72 74 76 78 81 84 87 89 89 87 85 84 83 80 81 84 87 89 89 90 89 86 82 79 76 71 67 65 62 59 59 59 59 60 61 62 62 62 63 65 66 67 69 70 67 66 68 71 69 64 60 61 61 59 59 62 66 67 62 58 59 61 60 58 59 63 69 75 75 72 70 70 70 69 66 64 63 64 68
83 85 84 84 84 84 84 83 83 83 83 85 86 87 88 88 86 85 84 84 87 91 95 97 97 97 97 96 94 94 93 91 89 87 84 82 80 78 77 76 75 74 74 75 77 79 80 80 80 79 78 77 79 82 84 79 72 70 71 73 75 76 75 67 56 53 59 64 64 64 65 65 65 67 67 66 66 64 62 60 58 56 56 55 55
82 81 80 80 80 80 81 82 83 85 86 87 90 93 94 95 97 98 96 95 96 99 102 103 104 105 105 104 103 103 102 102 102 100 99 99 97 95 93 91 89 86 86 87 91 94 96 95 92 89 91 95 97 99 101 99 95 92 93 97 103 102 88 67 52 52 58 59 60 65 69 69 69 69 69 70 70 70 68 67 66 66 65 63 61
101 99 96 92 90 88 86 84 81 80 79 78 78 79 81 81 83 84 84 83 80 79 79 81 82 84 85 86 87 87 87 86 85 83 82 81 79 79 78 77 76 75 75 75 77 81 86 87 86 85 88 93 96 98 101 103 103 102 103 106 111 113 100 74 55 54 60 60 61 64 67 68 69 70 70 71 72 73 75 76 77 77 75 73 71
112 112 110 109 108 105 104 104 101 97 96 95 92 89 87 83 78 75 72 70 70 69 70 71 71 71 70 70 69 68 66 65 63 61 59 57 57 57 58 58 59 59 59 59 59 61 66 69 69 70 72 76 80 83 88 91 92 93 98 102 106 107 100 82 66 61 63 64 67 69 69 69 70 70 70 70 70 71 73 75 77 77 76 76 78
110 111 111 112 113 109 109 113 112 107 108 112 112 109 106 101 96 92 86 83 82 81 80 80 80 80 79 78 76 74 72 69 65 60 57 55 53 52 50 49 49 47 46 45 45 47 49 52 54 54 56 60 65 69 73 77 80 82 86 90 94 95 90 83 77 72 70 70 74 75 73 71 69 67 65 65 65 66 67 68 70 71 72 75 79
104 106 108 110 112 111 110 112 112 109 110 111 109 105 101 97 93 91 88 87 87 85 83 81 78 76 74 72 71 69 65 63 60 57 54 53 51 50 47 45 43 42 40 39 39 39 39 40 42 42 42 45 50 54 58 62 67 72 73 73 76 79 78 76 75 76 76 78 78 77 73 69 66 63 60 58 57 58 60 61 63 66 68 71 75
101 103 105 105 107 108 106 103 101 99 97 94 90 85 82 78 75 73 71 71 71 71 70 68 66 65 63 61 59 57 54 52 51 50 48 46 45 44 43 41 40 39 38 37 37 36 35 37 38 37 37 38 40 43 45 48 52 59 63 60 57 57 60 64 68 73 75 75 73 72 70 67 63 60 56 53 53 55 57 60 64 67 70 71 73
84 86 87 87 86 86 84 81 78 75 72 69 66 63 61 60 58 57 56 55 56 56 56 56 55 54 53 51 50 49 48 47 46 45 43 42 41 40 40 39 37 36 34 33 33 32 33 33 34 35 36 36 37 38 40 43 47 50 52 51 46 41 42 47 53 57 60 60 60 63 64 63 59 55 50 49 52 56 59 62 65 68 72 74 75
Wind_Speed
51 53 52 51 51 51 52 53 53 52 53 54 56 57 55 52 50 50 50 49 47 46 46 46 46 46 46 47 47 46 46 44 44 45 47 49 51 53 55 56 57 56 55 53 52 50 48 46 44 42 41 40 39 38 38 37 34 35 34 31 29 30 28 27 28 29 26 25 26 27 26 27 27 27 26 26 28 30 32 34 36 37 36 34 30
46 47 47 47 48 49 49 49 49 49 50 53 55 54 51 48 45 44 44 44 42 42 43 43 42 43 44 46 47 46 47 47 47 49 51 53 54 55 55 55 55 54 52 50 48 46 44 43 41 40 40 39 38 38 41 39 35 36 37 34 31 31 31 30 30 32 32 31 31 32 33 32 29 29 29 29 29 29 29 32 34 35 35 33 31
40 43 44 45 45 44 42 43 47 49 49 49 48 46 44 42 41 40 39 40 40 41 41 40 39 40 41 44 47 48 51 52 52 53 53 54 56 56 56 56 55 52 49 47 45 43 42 40 39 38 39 39 39 40 43 43 38 37 39 39 35 32 32 33 33 35 36 37 37 38 38 37 34 32 33 32 31 30 31 33 35 35 34 33 32
40 44 45 44 40 39 40 45 48 44 40 35 33 34 33 33 37 39 38 37 37 38 38 37 36 34 35 39 43 46 51 54 54 54 55 56 57 57 58 57 54 49 46 44 43 42 40 38 38 38 38 39 40 42 45 46 44 42 43 43 41 37 34 34 35 37 38 39 39 39 39 37 35 34 34 34 32 31 32 34 36 37 36 34 32
41 39 38 37 37 38 42 43 37 30 23 16 16 21 23 28 34 34 33 34 33 33 32 33 32 28 29 35 38 41 45 49 51 52 53 55 55 56 56 53 49 46 45 44 42 41 39 38 37 37 38 38 39 42 45 47 47 44 44 45 45 44 40 36 36 38 38 38 37 38 39 39 38 37 36 36 35 33 32 35 37 38 39 38 35
36 29 28 33 37 39 38 31 22 14 7 4 15 22 25 30 36 36 33 32 30 30 30 29 28 28 31 33 35 38 41 42 45 46 49 52 53 53 52 50 48 46 45 43 42 41 39 38 37 36 37 38 39 41 44 48 49 47 45 46 48 49 46 41 39 40 40 39 38 37 38 39 39 38 37 37 38 37 36 38 38 37 38 39 37
31 25 27 35 37 31 23 19 13 5 7 16 23 29 33 34 38 42 38 33 30 28 27 26 26 27 30 31 33 36 39 40 40 43 48 51 51 51 50 50 48 46 44 42 42 40 38 37 37 36 35 37 39 40 41 46 51 53 51 49 49 50 50 48 45 43 42 41 40 40 39 40 40 40 39 38 38 39 37 37 37 37 38 40 39
29 27 31 36 31 19 13 17 21 20 22 27 31 36 40 40 42 44 40 35 31 28 27 27 27 28 31 34 35 37 39 39 42 46 49 49 47 47 47 46 44 42 41 39 38 38 37 36 36 36 35 35 38 40 41 42 46 52 55 55 54 53 53 53 51 49 47 43 41 41 43 44 44 44 42 41 41 40 37 36 37 38 40 41 42
27 28 32 32 27 22 21 20 25 30 32 34 37 40 43 45 46 43 38 36 33 31 30 28 29 31 33 36 37 37 39 41 45 48 47 44 42 41 41 40 39 38 37 36 35 35 36 35 35 35 35 35 37 39 41 42 42 45 50 53 55 56 56 56 54 53 52 51 48 47 47 47 46 46 45 44 45 43 39 38 39 41 42 43 44
32 30 29 27 28 33 31 24 24 32 34 35 38 42 45 48 47 43 39 37 35 34 30 28 32 33 31 32 34 37 41 44 46 46 43 40 38 37 36 36 36 35 35 34 33 34 34 35 34 33 34 34 35 37 40 42 43 43 45 47 50 52 54 54 54 54 53 54 54 53 51 50 48 45 44 44 44 44 43 41 40 42 44 44 45
35 30 26 25 31 38 38 34 30 31 34 34 38 43 46 48 49 48 44 40 38 37 32 30 34 35 31 29 31 32 35 37 41 42 40 36 33 31 32 33 33 33 32 32 31 31 32 32 32 32 32 33 34 35 37 40 43 44 45 46 47 49 50 51 53 54 54 55 56 56 55 53 50 47 45 44 44 45 46 44 42 42 42 43 43
30 26 25 28 34 37 40 40 35 33 34 33 36 42 46 48 48 49 49 45 43 42 38 35 37 37 33 29 28 27 26 28 31 32 33 30 27 26 27 29 30 29 29 28 28 28 28 29 29 29 29 29 30 32 34 36 39 41 44 45 47 48 50 51 52 54 55 56 56 57 57 54 51 49 46 44 43 44 45 46 44 42 41 42 42
26 26 30 34 36 35 37 40 38 36 34 31 35 40 44 47 48 50 52 49 46 45 43 41 41 40 37 33 30 27 27 28 27 27 28 27 26 26 26 26 26 26 26 25 25 25 25 25 26 26 26 26 26 27 28 30 32 35 37 40 43 45 47 49 50 52 53 54 54 54 54 53 51 49 46 43 42 42 44 46 46 43 42 43 44
30 32 37 37 37 38 38 39 39 37 32 29 34 40 43 46 48 52 55 54 52 49 48 46 45 44 43 41 37 34 35 33 31 30 31 30 30 29 27 26 24 24 24 23 23 23 23 23 24 25 24 24 24 25 25 25 27 28 29 32 34 36 38 41 43 45 46 48 49 50 50 50 49 48 46 45 44 43 43 45 45 44 43 43 44
35 38 41 37 37 40 41 40 40 40 34 31 35 41 43 44 46 49 53 57 57 54 52 52 51 50 48 46 45 43 42 39 35 33 33 33 32 31 30 29 27 25 24 23 23 23 23 23 24 24 24 25 24 24 24 24 25 25 26 27 28 30 31 33 34 36 38 40 43 45 46 47 48 48 48 48 47 45 45 45 45 44 44 43 44
35 41 42 38 38 41 42 42 42 41 39 37 39 44 46 46 47 49 51 54 55 54 54 54 54 54 52 51 50 48 48 46 43 40 37 35 34 34 36 36 33 29 28 27 27 26 26 25 25 26 26 27 27 26 26 25 26 26 26 27 28 29 30 31 32 33 34 36 38 40 42 44 46 47 48 50 50 50 49 48 48 48 47 47 47
33 39 42 40 39 41 41 41 41 42 42 41 39 40 44 46 48 51 52 53 53 52 54 55 56 57 56 55 54 52 52 52 51 50 46 43 41 41 40 39 37 35 34 34 32 31 29 28 27 28 28 29 29 29 28 28 28 27 27 27 28 28 29 30 32 33 34 35 36 37 39 40 41 43 46 48 50 51 52 51 51 51 51 52 52
34 37 42 44 41 38 37 36 37 39 39 40 38 35 40 46 48 50 52 53 53 53 55 58 59 59 58 56 54 53 53 52 52 53 52 50 48 46 43 41 40 40 39 39 38 35 33 31 30 29 29 30 30 31 31 31 31 30 29 29 29 29 30 31 32 33 34 36 37 38 39 40 41 42 43 45 47 49 51 52 53 55 55 56 57
33 36 41 45 41 35 34 37 40 38 36 38 36 31 35 45 51 51 50 51 52 53 55 58 59 59 59 57 55 54 53 52 51 51 53 52 48 44 43 42 42 43 42 42 42 40 38 35 33 32 32 32 33 34 35 35 34 33 33 32 32 32 32 33 34 35 36 37 38 39 40 41 41 42 43 44 45 46 47 48 50 52 54 55 56
34 36 39 43 42 38 38 43 44 39 37 38 34 29 33 42 50 53 52 51 51 52 54 57 58 59 60 59 58 55 53 51 50 50 52 53 48 44 42 42 44 45 46 46 44 43 42 41 37 35 34 34 36 37 39 40 39 39 38 38 37 37 37 36 36 36 37 38 39 39 40 41 42 43 44 45 46 47 47 48 48 49 50 51 51
36 37 38 41 44 46 48 49 43 35 35 38 37 35 38 44 49 54 54 52 51 51 53 55 58 59 60 60 59 58 55 53 51 49 51 53 51 48 46 46 46 48 50 51 49 46 44 44 42 38 35 36 38 41 44 45 45 44 44 43 43 42 42 41 40 39 39 39 40 41 41 42 43 44 45 45 47 48 48 49 50 50 50 50 50
37 36 38 42 48 52 53 51 44 39 40 43 43 44 45 47 51 54 55 55 54 53 53 54 57 59 60 60 60 59 57 56 54 52 52 54 55 54 54 53 52 53 54 55 55 52 48 47 46 42 39 39 42 46 49 50 50 49 47 46 45 45 45 45 44 43 42 42 42 42 43 43 44 45 46 46 47 47 49 49 50 50 50 50 50
41 41 41 44 49 52 54 53 49 48 50 50 49 49 49 49 49 50 52 54 55 55 54 54 56 59 60 61 62 61 60 58 57 56 55 56 58 59 60 60 59 58 58 58 58 56 52 50 49 48 46 46 48 52 54 55 55 52 48 46 46 46 46 46 46 46 46 45 44 44 44 44 45 46 46 47 46 47 47 48 48 48 48 49 49
50 52 49 47 49 50 52 54 54 54 55 55 54 54 54 55 54 52 51 53 56 57 56 57 58 60 60 62 63 63 62 60 60 60 59 59 60 62 64 65 65 65 63 62 59 56 54 53 53 53 53 53 55 57 57 57 56 53 50 48 48 48 47 47 48 48 48 48 47 46 45 45 46 46 47 47 47 47 48 47 47 47 47 47 47
56 58 56 53 52 51 51 52 53 52 54 56 57 57 58 59 60 58 56 56 57 57 57 59 61 61 60 61 62 63 63 62 62 62 63 63 63 64 66 68 69 69 68 66 63 59 57 56 56 56 57 58 61 61 59 56 55 53 52 52 51 50 50 50 50 51 51 50 50 49 48 47 47 47 48 48 47 48 48 47 47 48 48 48 47
57 57 58 58 57 56 54 54 52 51 52 55 57 59 60 60 60 60 60 59 60 59 59 60 62 64 64 62 62 62 63 64 64 64 65 66 66 67 68 70 70 71 71 70 69 67 65 63 62 62 63 64 63 61 58 56 54 53 53 54 54 53 53 52 52 53 53 53 52 52 51 50 50 49 49 48 48 48 48 48 48 48 49 48 47
57 57 58 59 59 59 59 58 58 57 57 58 59 60 61 61 61 60 59 58 59 61 60 60 62 65 66 66 65 64 64 65 66 67 67 68 69 70 70 70 71 71 72 72 73 73 72 71 70 69 67 65 63 61 59 57 56 55 54 54 55 55 55 54 54 54 55 55 55 54 53 52 51 51 50 50 49 49 49 49 49 48 50 50 48
58 58 58 58 59 59 59 59 59 59 59 59 59 60 61 61 60 58 57 58 59 61 62 63 65 66 67 68 67 65 65 66 68 69 69 69 71 72 73 74 75 75 76 77 78 78 77 75 72 69 67 66 64 62 59 57 57 56 56 56 56 55 54 54 54 54 55 55 54 54 54 54 53 52 52 51 51 51 50 50 50 49 49 50 49
59 59 60 60 60 59 58 58 58 58 58 59 59 59 59 59 57 55 55 59 60 60 62 64 65 67 68 68 67 65 64 64 66 68 69 70 71 73 75 76 78 79 79 80 80 78 76 74 72 71 70 68 65 61 58 58 58 57 56 55 53 52 51 51 51 51 51 52 53 55 56 56 55 54 54 52 51 51 50 50 50 49 48 48 48
61 61 61 60 59 58 58 59 59 59 60 60 59 59 60 60 58 55 55 57 58 57 58 59 60 62 64 66 67 66 65 65 66 67 69 71 72 74 76 76 77 78 78 78 77 75 74 74 74 74 72 69 64 60 58 57 56 54 53 52 51 51 51 50 49 49 50 52 55 57 57 57 56 55 54 52 50 50 51 51 49 48 46 45 46
62 62 61 60 60 59 59 59 59 60 60 61 61 62 63 63 63 61 59 60 61 60 60 61 61 62 62 64 66 68 68 69 70 71 72 72 73 74 75 76 77 77 78 78 77 76 76 75 75 74 69 63 59 56 55 55 53 51 50 49 48 48 47 47 48 49 50 52 53 54 55 55 55 55 54 52 50 49 50 50 48 45 44 44 45
60 61 60 60 60 60 59 59 60 60 61 61 62 62 63 63 63 63 63 63 64 64 65 66 67 67 67 67 68 69 70 70 71 72 73 74 74 74 74 74 75 75 76 77 77 76 75 73 72 70 64 58 55 56 57 57 55 50 46 44 43 42 43 44 46 48 49 50 51 52 53 53 53 53 53 52 50 49 48 49 48 46 47 48 48
58 57 58 58 57 57 57 58 58 59 60 61 61 61 61 62 62 62 63 63 64 65 66 67 68 68 69 69 70 70 70 70 70 71 72 72 72 72 72 72 72 72 73 74 74 73 72 70 68 66 63 60 58 58 59 57 54 48 43 41 41 41 43 44 45 47 49 50 51 51 51 51 51 50 51 51 50 50 51 51 51 51 52 52 51
56 55 55 56 56 57 58 58 59 60 60 61 61 61 61 62 62 62 63 63 64 64 65 66 67 68 69 70 70 70 71 71 70 70 70 70 70 70 71 71 70 70 72 72 71 71 69 68 67 67 66 64 61 59 57 54 51 50 49 48 50 51 51 49 46 46 46 48 49 52 53 53 53 51 51 51 51 53 56 57 56 56 57 57 57
56 55 55 56 59 61 61 61 61 61 61 62 62 63 63 63 64 64 64 64 64 64 65 66 67 68 69 70 71 72 72 72 72 72 71 71 71 71 72 71 70 70 71 72 72 71 70 69 69 69 67 66 65 63 60 58 56 56 57 58 60 60 58 54 50 48 48 47 48 51 55 56 56 56 55 54 54 56 59 61 61 61 62 64 65
57 56 55 56 60 63 63 62 62 62 63 64 64 64 64 64 65 65 66 66 65 65 66 68 68 69 70 71 71 73 73 73 73 73 73 72 72 73 72 72 71 71 71 72 72 72 71 70 70 69 68 68 68 67 67 67 67 67 66 66 67 66 65 62 60 60 60 58 58 60 63 64 63 61 60 60 60 61 63 64 65 66 67 69 70
59 59 58 58 60 63 63 63 64 65 66 67 67 67 67 66 66 67 67 68 67 68 69 69 69 70 71 71 72 73 74 73 73 73 73 73 73 73 73 73 72 72 73 73 73 73 72 72 72 72 71 71 71 71 72 73 74 74 73 73 74 74 73 72 73 72 71 70 71 72 73 72 71 69 68 68 68 69 69 69 68 68 69 71 71
63 62 62 62 62 63 64 65 65 66 67 68 69 70 70 69 69 69 70 70 71 71 71 71 71 72 73 73 74 75 74 74 74 74 74 73 73 74 74 74 74 74 74 74 75 74 74 74 74 75 75 75 74 74 75 75 76 77 77 78 78 78 76 74 74 75 74 74 75 74 73 74 76 76 75 75 74 73 72 70 70 70 71 71 72
66 66 66 66 65 65 66 67 67 67 68 69 70 71 72 73 72 72 73 73 73 73 73 73 73 73 73 74 74 74 73 72 72 72 72 72 72 72 73 73 73 73 74 74 74 74 74 75 74 75 76 75 74 74 75 75 76 77 77 78 77 75 73 72 71 72 73 75 76 75 73 74 76 76 75 75 75 74 72 71 71 72 72 73 73
66 66 67 66 66 67 67 68 69 69 70 71 72 73 74 74 74 74 74 74 75 74 73 74 74 73 73 72 72 72 71 69 69 68 67 67 67 67 68 68 68 68 69 69 70 70 70 71 71 70 71 71 70 70 71 71 71 72 72 73 72 69 68 70 70 70 71 73 74 75 76 77 78 76 73 73 73 72 72 71 71 71 72 73 74
65 65 66 66 66 67 68 68 69 70 71 73 74 75 75 76 76 75 75 75 75 75 74 74 74 73 73 73 73 73 72 71 69 67 66 65 65 64 65 65 65 65 65 66 66 67 67 67 68 68 68 68 68 68 69 69 69 70 70 70 70 69 69 70 70 69 69 70 72 73 75 77 77 76 73 72 71 70 70 70 69 70 71 72 73
64 65 65 65 66 66 67 69 70 71 72 74 75 76 77 77 77 77 77 76 76 75 75 75 75 75 75 75 76 76 76 75 74 72 70 68 67 67 67 67 67 67 67 67 67 68 68 68 69 70 69 69 69 70 71 71 70 71 71 71 70 71 71 70 70 70 69 69 70 71 71 71 72 71 70 69 68 68 68 67 67 67 67 67 68
66 66 67 67 67 67 68 69 70 71 72 73 75 76 77 77 78 77 77 77 76 76 76 77 77 77 78 78 79 79 79 80 79 78 77 75 74 74 73 72 72 72 71 71 71 71 71 71 71 72 72 70 70 72 74 74 73 73 74 73 72 72 73 74 74 72 69 69 71 72 70 69 69 69 70 69 69 68 67 67 67 66 65 65 65
68 68 69 69 70 70 70 71 72 73 73 74 75 76 77 77 78 78 78 77 77 77 77 78 79 79 80 80 81 81 82 82 83 83 82 81 80 80 79 78 77 76 75 75 74 74 75 75 75 75 74 73 73 74 77 78 77 76 76 76 76 78 80 80 78 72 69 71 73 72 71 71 71 71 71 71 70 70 69 69 68 67 66 66 66
72 72 72 73 73 73 73 74 74 75 76 76 77 77 78 79 79 80 80 79 79 79 79 79 80 80 81 82 83 84 84 85 86 86 86 85 85 84 84 83 83 82 81 79 78 78 78 79 79 78 76 75 75 76 78 81 81 80 79 79 80 85 88 86 79 73 71 72 72 71 71 72 72 73 73 72 72 71 70 70 69 68 68 68 68
76 76 76 76 76 76 76 76 77 78 78 78 79 79 80 81 81 81 82 81 81 81 81 81 82 83 84 85 85 86 87 87 88 88 88 88 88 87 87 87 86 86 85 84 83 82 81 82 83 82 79 78 78 78 79 82 82 81 81 81 83 89 93 90 83 77 75 74 72 72 73 73 73 74 74 74 73 72 72 71 71 71 71 70 70
79 79 79 79 79 79 79 80 81 81 81 82 83 83 84 84 84 84 83 83 83 83 83 83 84 85 86 87 88 88 89 89 90 90 89 89 89 89 88 88 88 88 87 86 85 84 83 84 85 84 82 81 81 81 81 83 84 83 83 84 87 92 95 94 89 85 83 80 78 78 77 77 76 77 76 76 75 74 74 73 73 72 72 72 71
82 82 83 83 83 83 83 84 85 85 85 86 87 87 88 88 87 88 88 87 87 87 87 88 88 89 89 90 91 92 92 92 93 92 92 91 91 91 91 90 90 90 89 87 86 85 85 85 86 86 84 82 81 82 83 84 85 86 87 88 90 93 96 95 93 91 89 87 85 84 83 82 81 80 79 78 77 76 75 75 74 73 73 72 73
86 86 86 87 87 87 88 89 89 89 90 90 91 91 91 91 90 90 91 91 91 92 92 92 92 93 93 93 94 94 95 94 94 94 94 93 93 93 93 92 91 90 89 88 86 86 84 83 85 87 86 82 81 82 83 84 85 88 91 93 93 94 95 95 93 92 91 90 89 88 87 86 84 83 81 80 78 77 76 75 74 73 73 73 73
89 89 90 90 91 91 92 93 93 93 93 93 93 93 93 93 93 93 93 93 93 93 94 94 94 95 95 95 95 95 95 94 94 93 93 92 91 91 91 91 91 90 88 87 86 85 83 82 83 86 85 83 82 82 82 83 85 88 92 97 98 96 94 92 92 91 91 91 91 90 89 88 87 86 84 81 79 78 77 76 75 74 74 74 74
91 91 92 92 93 93 94 94 94 94 94 94 93 93 93 93 93 93 93 92 92 93 93 94 94 94 94 94 94 94 94 93 93 92 92 91 90 89 89 90 90 89 87 86 85 84 82 81 81 83 84 83 82 81 81 81 84 89 93 98 101 98 93 90 90 90 91 91 91 90 90 90 89 87 85 82 81 80 79 78 77 76 75 75 75
Wind_Direction
260 262 264 266 266 269 272 275 275 274 275 277 280 281 282 282 280 279 277 275 276 276 274 272 269 266 261 257 253 251 252 248 244 247 253 261 267 272 278 283 289 293 296 298 298 297 295 293 290 286 279 270 260 248 238 239 241 241 242 242 242 241 241 238 239 242 241 244 254 259 256 254 259 264 266 266 266 268 271 274 274 269 267 265 261
262 263 265 265 267 271 274 273 274 276 279 283 285 285 286 287 283 279 278 277 277 276 274 272 267 263 259 256 251 247 247 248 250 254 259 268 276 281 285 291 296 298 298 298 296 294 292 291 287 283 278 267 255 243 233 235 241 239 237 236 237 240 241 242 246 249 244 242 249 257 260 259 261 262 262 264 267 269 269 270 273 272 268 263 255
262 264 266 269 272 272 271 274 279 283 285 288 291 291 292 292 289 286 284 281 278 275 273 270 266 262 260 256 252 247 246 250 254 258 264 273 279 284 288 293 296 296 296 295 293 292 289 287 283 280 276 266 254 240 231 232 238 238 236 236 237 240 243 244 250 255 251 247 248 253 258 260 263 263 262 263 264 264 264 265 269 271 270 266 258
257 262 267 272 274 272 273 281 285 287 292 297 297 300 301 295 291 289 286 282 278 275 272 267 265 263 259 255 252 249 248 250 254 259 266 273 278 283 287 291 292 293 294 293 292 290 287 283 280 276 272 265 255 243 234 232 235 237 237 236 238 241 246 250 254 257 255 251 249 249 253 259 262 262 261 261 262 264 266 267 267 268 269 267 262
258 267 273 272 272 274 280 286 290 296 310 313 288 290 293 286 286 286 283 279 276 274 269 264 261 254 249 253 253 252 251 251 253 258 264 271 277 282 285 288 290 292 292 292 291 288 285 280 276 271 265 261 256 247 239 235 236 238 237 236 238 242 248 254 256 256 253 249 247 247 252 257 259 261 263 264 264 263 263 266 269 268 265 264 262
260 269 271 269 273 279 285 293 305 322 338 263 250 260 262 268 276 276 274 275 273 270 265 259 255 243 238 248 252 252 252 252 253 258 266 274 280 284 286 288 289 289 289 288 288 285 282 277 272 267 261 256 253 249 244 238 237 239 240 239 240 242 247 251 253 253 252 250 248 249 252 255 258 262 266 267 265 260 258 264 269 267 264 262 263
252 253 255 263 273 282 286 291 300 294 213 219 229 240 245 249 260 264 265 270 272 272 266 258 253 241 235 243 248 248 251 253 255 264 274 281 284 285 286 287 285 284 284 283 283 281 277 273 269 264 258 253 250 248 246 241 238 240 242 244 244 244 247 250 252 252 253 253 251 251 254 258 261 264 266 264 262 260 258 260 264 265 264 264 264
244 241 244 254 265 266 245 249 258 243 223 221 222 230 238 239 245 252 256 261 269 273 269 262 257 244 234 240 246 248 252 257 263 272 279 282 283 283 284 283 282 281 281 280 280 278 275 270 267 263 258 252 248 246 245 243 241 241 242 244 246 247 247 250 253 253 253 256 257 257 259 262 264 265 264 262 260 260 255 252 256 259 261 263 264
239 235 238 246 245 225 211 225 249 246 234 232 235 238 240 241 244 248 252 258 265 266 264 262 256 241 232 237 244 249 255 262 268 275 280 281 281 282 282 282 280 279 278 277 277 276 274 270 266 262 259 255 250 247 244 243 242 242 243 244 246 247 248 250 253 254 254 256 259 262 265 267 268 267 266 263 261 260 255 251 253 254 255 257 261
243 241 241 240 222 207 202 204 227 242 241 240 245 250 251 251 251 251 252 258 261 257 256 256 247 234 229 238 248 254 259 263 269 274 277 278 279 280 281 279 277 276 276 275 275 274 273 271 267 263 259 256 253 250 247 245 244 244 244 244 244 246 247 248 250 253 255 257 259 262 265 267 268 268 267 265 262 259 256 256 256 254 254 255 258
242 241 236 225 209 202 201 201 211 232 241 241 245 253 256 256 256 255 254 255 255 252 251 252 245 233 228 238 251 259 263 266 271 272 272 274 277 281 281 276 273 275 275 275 275 274 272 270 268 264 260 257 255 253 251 249 247 246 246 246 246 246 247 249 250 252 255 258 260 262 264 265 264 264 264 263 261 259 257 257 258 257 257 258 259
229 226 230 223 211 205 204 204 207 220 234 240 245 251 254 255 254 253 253 253 251 250 251 253 250 240 233 237 247 256 264 270 272 271 270 272 277 284 284 277 275 276 277 276 276 274 273 271 269 267 263 260 257 256 254 252 251 250 250 250 250 250 251 252 253 254 256 259 261 263 264 263 261 260 260 259 259 259 256 255 256 257 257 258 259
219 220 230 225 212 206 208 209 210 214 222 232 242 250 253 253 251 250 251 251 249 248 250 251 250 245 240 241 244 252 262 268 269 271 273 274 278 285 286 282 281 281 280 277 276 274 273 272 270 269 266 263 261 259 258 257 255 254 254 254 254 254 255 256 256 257 258 259 260 261 262 262 260 258 256 254 256 257 256 255 255 256 255 255 256
223 222 228 224 214 208 211 216 215 217 223 230 241 250 255 256 253 250 250 249 249 249 249 250 249 246 245 246 248 255 263 266 266 269 274 276 277 280 281 283 285 286 285 282 279 276 274 272 270 268 266 263 261 261 261 261 260 259 259 259 258 259 259 259 259 260 260 260 259 260 260 260 258 255 252 251 253 256 258 258 257 256 255 254 254
225 222 224 224 219 213 216 223 223 224 232 239 244 250 256 258 257 254 251 249 250 251 251 252 251 249 249 250 253 256 259 263 266 269 270 272 275 275 277 282 286 287 287 286 283 281 278 276 273 270 267 264 261 261 261 262 264 264 263 263 263 263 263 263 264 264 265 264 262 261 260 259 258 256 254 252 252 254 257 259 258 256 254 255 255
223 219 221 223 223 218 220 229 229 228 234 242 250 255 258 259 259 259 256 251 250 251 250 250 248 248 250 253 256 256 256 260 265 268 268 268 271 274 277 281 282 282 284 284 284 285 282 279 276 274 272 268 264 263 263 264 265 267 268 267 266 265 265 266 267 267 268 268 266 264 262 261 259 258 257 256 256 256 257 258 258 257 256 256 256
224 220 222 224 224 224 228 233 231 231 237 243 251 261 265 264 262 263 261 255 252 250 248 247 246 248 250 253 256 256 256 258 260 264 266 267 271 275 277 279 278 278 281 280 281 284 284 281 278 276 275 272 269 266 267 268 268 269 270 271 271 271 270 270 270 270 269 268 267 265 265 264 262 261 260 259 259 258 258 258 258 258 258 258 259
229 224 223 224 227 233 240 242 235 231 236 241 245 255 266 269 267 266 263 258 254 251 249 248 248 250 252 254 255 256 256 257 257 259 262 266 271 274 274 274 274 276 278 277 276 278 281 282 280 279 278 276 273 271 272 273 273 272 272 273 274 274 275 275 275 275 273 271 269 267 266 265 265 264 263 261 260 260 260 259 259 260 260 260 261
230 226 223 224 227 232 239 244 239 231 231 238 241 247 259 265 266 264 261 258 256 255 253 252 253 254 255 255 256 256 257 256 256 257 258 262 267 269 269 270 270 270 274 275 272 270 272 277 280 280 280 279 277 276 277 277 276 276 276 277 276 276 276 277 278 277 277 275 274 272 271 269 268 267 266 265 264 263 262 261 261 261 261 262 263
229 226 224 223 224 225 231 238 238 233 231 233 233 234 245 255 260 260 259 259 260 259 258 257 257 257 257 258 258 258 257 256 256 256 256 257 259 262 264 266 267 266 269 272 270 266 266 270 276 280 282 283 283 281 280 278 276 276 277 278 279 278 277 276 277 277 277 277 276 275 274 273 272 271 270 269 268 267 265 264 263 262 262 262 262
233 229 226 222 222 225 231 237 237 232 230 228 223 228 240 248 254 257 258 261 263 262 261 259 259 259 258 259 259 259 258 256 254 253 253 253 254 257 258 260 263 265 267 270 271 269 267 266 270 277 281 285 288 288 286 283 278 276 276 276 277 278 278 277 277 277 278 278 277 276 275 274 273 272 271 270 269 268 267 266 265 264 264 263 263
240 234 228 223 223 228 234 237 235 229 228 228 225 229 238 246 252 256 259 262 263 262 261 260 260 260 259 259 260 259 258 256 254 251 251 250 251 254 256 257 260 263 266 269 270 272 272 268 268 271 276 282 289 290 288 285 282 278 277 276 275 276 277 277 277 278 279 279 278 277 275 275 274 274 273 272 270 269 268 266 266 266 265 265 264
238 236 233 228 226 230 233 234 231 228 229 233 233 235 241 248 252 256 260 262 262 261 262 261 260 260 260 260 260 259 258 257 255 252 251 251 251 253 255 257 259 262 265 267 269 270 272 270 267 267 271 279 287 289 287 285 282 279 275 274 275 276 276 276 276 277 278 279 278 277 275 275 274 274 273 273 272 270 269 267 267 266 266 265 264
239 241 240 236 232 232 235 235 235 234 236 239 241 242 245 249 252 255 257 259 260 261 260 260 260 260 260 260 260 260 259 257 256 253 252 252 252 254 255 258 260 261 263 265 266 268 270 270 268 267 268 275 283 286 286 284 282 278 273 272 275 277 278 278 278 278 279 279 278 277 276 276 275 274 274 273 272 271 269 268 267 267 267 266 266
239 240 241 242 241 239 237 235 236 238 242 246 248 249 249 249 250 252 254 256 258 259 259 258 259 259 258 258 259 260 260 259 257 255 253 253 254 255 256 258 260 261 262 262 262 265 268 268 268 268 269 276 282 284 284 283 281 277 273 272 276 279 280 281 280 280 281 280 280 280 279 279 278 277 276 275 273 272 271 270 269 269 268 266 266
240 240 241 244 245 244 241 238 237 240 244 248 251 252 253 252 251 252 253 254 255 256 257 257 257 257 256 256 256 258 259 259 259 257 255 254 254 255 257 258 259 260 261 261 262 265 268 269 270 272 274 278 281 281 282 281 279 276 274 275 278 281 282 282 282 282 282 282 282 283 283 283 282 281 279 277 275 274 273 273 271 271 270 268 266
245 245 245 245 245 245 245 244 243 244 246 246 248 250 252 253 253 252 252 252 252 252 252 252 254 255 256 256 255 256 257 259 260 259 258 256 255 256 257 258 259 259 260 261 264 267 270 272 274 275 276 278 278 280 281 280 278 277 276 278 280 282 282 282 282 282 282 282 283 284 284 284 283 281 279 277 276 276 275 274 273 272 272 271 269
248 249 249 249 249 249 249 249 249 248 248 247 247 248 250 251 252 252 252 252 250 249 248 248 249 251 254 256 257 257 257 258 259 259 258 257 257 257 257 258 259 260 262 264 266 268 271 273 274 275 276 277 279 280 280 278 278 278 278 279 280 280 280 280 280 280 281 282 283 284 285 284 282 281 279 278 278 278 277 276 274 273 272 271 269
252 253 253 253 253 252 252 252 252 251 251 251 251 251 250 250 251 252 253 253 251 249 249 249 248 248 250 253 256 257 258 258 258 257 257 257 258 258 259 260 261 262 264 265 267 269 270 272 274 275 277 279 280 280 278 278 278 279 279 279 278 278 279 279 279 279 280 282 284 285 285 284 283 281 280 279 279 278 277 274 272 270 269 268 268
253 254 255 255 254 254 255 255 255 255 255 255 255 254 253 253 253 252 252 254 254 252 250 249 249 249 249 250 252 253 255 256 256 257 257 259 260 260 261 261 263 264 265 266 268 270 271 273 275 276 278 279 279 278 278 279 278 278 278 276 276 277 278 279 279 279 281 284 287 287 286 284 283 281 279 279 278 276 274 272 270 269 268 267 267
253 254 255 255 255 256 257 257 257 257 258 258 258 257 257 257 257 256 254 253 253 253 251 250 250 251 251 251 251 251 252 253 255 256 257 259 260 260 261 261 263 264 265 267 268 269 271 273 274 275 276 276 277 278 279 278 276 275 273 273 275 277 277 277 278 281 284 286 286 284 283 283 282 280 280 279 277 275 274 271 269 268 268 270 269
253 254 255 256 257 258 258 258 259 259 259 259 258 258 258 259 259 259 257 255 254 253 253 253 253 253 253 253 253 253 253 253 254 255 257 258 260 261 261 261 262 263 264 265 266 267 269 270 271 272 272 272 275 278 279 278 276 275 273 271 273 275 276 278 279 283 286 286 283 281 279 278 278 277 278 278 278 276 273 270 269 267 268 270 270
254 256 257 258 260 261 261 261 260 260 259 259 258 258 258 258 258 258 258 257 256 255 255 255 255 255 255 255 255 255 255 255 255 256 257 258 260 261 262 263 263 263 264 264 265 266 267 268 269 269 269 270 272 275 277 277 275 274 272 269 268 272 276 277 281 287 289 287 283 281 278 276 275 274 274 274 275 274 273 272 271 269 267 267 267
256 257 258 259 262 262 262 261 261 260 260 259 259 259 259 258 258 258 258 257 257 257 256 256 256 256 256 256 256 257 257 257 258 259 259 259 261 262 263 264 265 265 266 267 267 267 268 268 268 268 269 269 269 269 270 270 269 268 267 265 267 271 273 274 279 285 286 284 282 281 280 278 275 273 271 271 271 272 273 274 274 272 269 268 268
258 258 258 260 262 262 261 261 261 261 261 260 260 260 260 260 260 259 259 258 258 258 258 257 257 257 257 257 257 257 258 258 259 260 261 262 262 263 264 265 265 266 267 268 268 269 269 269 269 269 270 270 269 268 266 264 264 264 263 262 265 268 269 270 273 274 272 272 275 278 279 277 274 271 271 270 269 270 272 273 273 272 271 271 271
259 259 260 261 262 263 264 264 264 264 264 263 262 262 262 262 262 262 262 261 260 260 259 259 258 258 258 258 258 258 259 259 259 260 261 262 263 263 264 264 265 265 265 266 267 267 268 268 268 269 269 270 270 269 268 266 265 265 264 263 263 265 267 267 268 268 267 268 270 273 274 273 271 271 272 272 271 271 272 272 272 272 272 273 274
260 260 260 260 261 264 266 266 267 267 267 266 265 264 263 262 263 263 264 264 263 262 261 261 261 260 260 260 260 259 260 260 261 261 261 262 262 263 263 264 264 264 264 264 264 265 266 267 267 268 268 269 269 269 270 269 269 269 268 266 266 267 268 269 270 270 270 270 271 272 271 269 268 269 271 272 272 273 274 274 273 272 272 273 276
259 259 259 258 258 259 261 262 264 266 267 267 268 268 267 267 266 266 266 266 266 265 265 265 264 263 263 262 261 261 261 262 262 262 263 263 263 263 263 263 263 263 263 263 264 264 265 266 266 267 268 268 268 268 268 269 269 270 269 269 269 269 270 270 270 270 270 270 271 271 269 266 265 266 268 270 271 272 274 274 273 273 273 274 275
258 258 258 258 258 258 259 260 262 263 264 265 266 268 269 270 271 271 270 270 271 271 270 270 269 268 267 266 266 265 264 263 263 263 263 263 263 263 263 263 263 263 264 264 264 265 265 265 266 267 268 268 268 268 268 267 267 267 268 268 268 269 269 268 268 267 267 267 267 266 265 264 264 265 267 268 268 270 270 271 271 272 273 274 275
257 257 258 258 259 259 259 260 261 262 263 264 265 266 267 269 270 270 271 272 273 273 274 273 273 273 272 272 271 269 268 265 264 263 263 263 263 264 264 264 264 264 265 265 266 266 266 267 267 268 268 269 269 269 268 268 267 267 267 267 267 267 267 267 267 267 265 264 262 261 261 263 265 267 268 268 269 269 270 270 271 271 273 274 275
257 257 257 258 258 258 259 259 260 261 261 262 263 264 265 266 268 269 270 271 272 273 274 275 275 275 274 275 274 274 272 271 269 268 267 267 267 267 268 268 267 267 267 267 267 267 268 268 269 269 269 270 270 270 269 269 268 268 268 268 267 267 267 267 267 265 264 263 263 263 263 264 265 267 267 268 269 271 271 272 272 273 273 273 274
259 259 258 258 258 257 257 258 259 259 260 261 262 263 264 265 266 267 268 269 270 271 271 272 272 272 273 274 274 275 276 276 276 276 275 275 274 273 273 273 272 272 271 270 270 270 270 270 270 270 270 271 271 271 270 269 269 269 269 269 268 268 268 267 266 265 264 265 265 266 266 266 267 267 268 269 270 271 272 273 274 273 273 273 274
261 261 261 261 260 260 259 259 259 259 259 260 261 262 263 264 265 266 267 267 268 268 269 269 270 270 271 272 274 275 276 277 278 279 279 278 278 276 275 274 274 273 272 272 272 271 271 271 271 271 271 271 271 272 273 272 271 271 271 271 270 270 268 266 264 265 266 267 267 267 268 268 268 269 270 271 272 272 272 273 273 274 274 275 275
260 261 261 261 261 261 261 261 261 261 261 261 262 262 263 264 265 265 266 267 267 268 269 269 270 271 271 272 273 274 275 276 277 277 278 278 278 277 277 276 275 274 273 273 272 271 271 271 270 270 271 271 272 272 273 273 273 273 273 274 274 273 270 267 265 265 266 266 266 267 268 269 269 269 270 271 271 272 272 273 274 275 276 276 276
263 263 263 263 263 262 262 262 262 262 262 262 262 262 263 263 264 265 265 266 266 266 266 266 267 267 268 269 270 270 271 272 272 273 273 274 274 274 275 275 274 274 273 272 271 270 270 270 270 270 270 270 270 270 270 271 272 273 273 273 273 272 272 270 269 268 267 265 265 266 266 267 267 268 268 269 269 270 272 273 274 275 275 276 276
265 266 266 266 267 267 267 267 266 266 265 265 265 264 264 264 264 264 265 266 266 266 266 265 265 265 265 265 266 267 267 268 269 269 270 270 271 271 271 271 271 271 271 270 269 268 268 268 268 268 267 267 266 266 266 267 268 269 269 269 269 269 271 273 273 272 271 269 269 268 268 268 268 268 268 268 269 270 271 272 273 273 274 275 276
264 265 265 266 267 267 268 268 268 268 269 269 269 269 269 269 269 269 270 270 271 271 271 270 270 270 270 270 270 270 271 271 271 272 272 272 272 272 272 272 272 272 271 270 270 269 268 268 267 267 265 265 264 264 264 264 265 266 266 266 266 267 269 272 275 275 274 274 273 272 271 271 270 269 269 269 270 270 271 271 272 272 273 274 275
263 264 264 265 265 266 266 266 266 267 267 267 268 268 269 270 270 271 272 273 273 273 273 273 273 272 272 273 273 273 273 273 274 274 274 275 275 275 274 273 273 272 271 271 270 269 269 268 268 267 266 264 264 264 264 264 265 265 264 263 263 265 267 269 271 273 274 274 274 273 273 272 272 271 271 270 270 270 271 271 271 272 273 274 274
264 264 264 265 265 265 265 265 266 266 266 267 267 267 268 269 269 270 270 271 271 272 272 272 273 273 273 273 273 273 273 273 274 274 275 275 275 275 275 274 274 273 272 272 270 269 268 268 268 267 266 265 264 264 264 264 265 265 265 264 262 263 264 267 269 270 271 272 272 272 272 272 272 272 272 271 271 272 272 272 273 273 274 274 274
264 265 265 265 265 265 266 266 266 267 267 267 268 268 269 269 270 270 270 270 270 271 271 272 272 272 272 273 273 273 274 274 274 274 274 274 274 274 275 275 274 273 273 272 270 269 268 267 267 267 266 265 264 263 263 263 264 264 265 265 264 263 263 264 265 266 267 268 269 270 271 272 272 272 272 272 273 273 274 274 274 274 274 274 275
264 264 265 265 265 265 266 266 267 267 267 268 269 269 269 270 270 270 270 271 271 271 271 272 272 272 272 273 273 274 274 274 275 275 275 275 275 274 274 274 274 273 272 272 271 270 269 268 267 266 266 265 263 262 261 262 262 262 262 263 264 264 264 263 264 265 266 267 268 268 269 270 270 271 272 273 273 274 274 274 274 274 274 274 274